Regional Weather Roundup
Issued by NWS

Home | Current Version | Previous Version | Graphics & Text | Print | Product List | Glossary On
Versions: 1 2 3 4 5 6 7 8 9 10 11 12 13 14 15 16 17 18 19 20 21 22 23 24 25 26 27 28 29 30 31 32 33 34 35 36 37 38 39 40 41 42 43 44 45 46 47 48 49 50
000
ASUS45 KBOI 171310
RWRID

IDAHO REGIONAL WEATHER ROUNDUP
NATIONAL WEATHER SERVICE BOISE ID
600 AM MST WED JAN 17 2018

NOTE: "FAIR" INDICATES FEW OR NO CLOUDS BELOW 12000 FEET
WITH NO SIGNIFICANT WEATHER AND/OR OBSTRUCTIONS TO VISIBILITY

IDZ012-014-171400-
SOUTHWEST IDAHO


CITY           SKY/WX    TMP DP  RH WIND       PRES   REMARKS
BOISE          FOG       29  29 100 NW8       30.35R VSB 1/2 WCI  21
CALDWELL       FOG       33  33 100 S6        30.38R VSB 1/4 WCI  28
MOUNTAIN HOME  PTCLDY    30  23  74 SE7       30.35F WCI  23
$$

IDZ016-017-171400-
SOUTHCENTRAL IDAHO


CITY           SKY/WX    TMP DP  RH WIND       PRES   REMARKS
BURLEY         CLEAR     31  28  89 VRB5      30.35S WCI  26
JEROME         CLEAR     31  28  89 NE17      30.36S WCI  19
TWIN FALLS     PTCLDY    27  27 100 SE3       30.35R
$$

IDZ019>023-171400-
SOUTHEAST IDAHO


CITY           SKY/WX    TMP DP  RH WIND       PRES   REMARKS
IDAHO FALLS    CLEAR     26  24  92 N7        30.38R WCI  18
POCATELLO      CLEAR     28  26  92 NW8       30.38R WCI  20
REXBURG        CLEAR     22  19  89 N3        30.37R
$$

IDZ006-010-011-018-031-032-171400-
CENTRAL IDAHO MOUNTAINS


CITY           SKY/WX    TMP DP  RH WIND       PRES   REMARKS
MCCALL         FOG       25  23  92 CALM      30.29S VSB 1/2
HAILEY         CLEAR     21  18  86 NW13      30.39S WCI   9
STANLEY        NOT AVBL
SALMON         PTCLDY    17  14  88 CALM      30.44R
CHALLIS        CLOUDY    17  12  80 CALM      30.39S
$$

IDZ002-004-006-007-026-171400-
NORTHERN IDAHO


CITY           SKY/WX    TMP DP  RH WIND       PRES   REMARKS
LEWISTON       MOCLDY    38  35  89 E14       30.23F WCI  30
LOWELL         NOT AVBL
COEUR D`ALENE  FOG       32  32 100 NE12      30.24F VSB 1/2 WCI  23
MULLAN PASS    MOCLDY    26  26 100 S10       30.17F FOG     WCI  16
$$



USA.gov is the U.S. government's official web portal to all federal, state and local government web resources and services.